Torna al catalogo

SL-16 DEB

AttivoLEO
NORAD 39895·DEBRIS·🇷🇺 Russia

Lanciato Mar 26, 1993 da Baikonur Cosmodrome

Loading…

Prossimi Passaggi (prossime 24 ore)

TLE

ObsoletoSource: Space-Track

Epoca: Aug 24, 2026, 18:19 UTC

1 39895U 93016BV  26236.76326070  .00000297  00000-0  23391-3 0  9992
2 39895  70.9892  58.7609 0122135 215.2198 144.0800 13.96296224343492

Traccia SL-16 DEB in tempo reale con AllMySat

Download on the App Store